Location: Fort Worth, Tx
(32.7431°N, 97.3695°W)
Time: 00:54:58
(UTC-04:00)

ISS - Visible Passes

Search period start: 24 June 2018 00:00
Search period end: 04 July 2018 00:00
Orbit: 403 x 408 km, 51.6° (Epoch: 24 June)

Date Brightness Start Highest point End Pass type
(mag) Time Alt. Az. Time Alt. Az. Time Alt. Az.
29 Jun -1.4 06:08:19 10° SSE 06:10:24 16° SE 06:12:29 10° E visible
30 Jun -3.8 06:51:14 10° SW 06:54:30 74° NW 06:57:47 10° NE visible
01 Jul -3.2 06:01:07 28° S 06:02:24 46° SE 06:05:35 10° ENE visible
02 Jul -1.6 05:11:07 19° ESE 05:11:07 19° ESE 05:12:56 10° ENE visible
02 Jul -2.3 06:43:54 10° W 06:46:45 27° NW 06:49:36 10° NNE visible
03 Jul -3.5 05:53:41 40° W 05:54:31 54° NW 05:57:45 10° NE visible
